カタログに戻る

STARLINK-38133

運用中通信SSO
NORAD 100216·PAYLOAD·🇺🇸 United States

打ち上げ Aug 4, 2026 から Vandenberg Space Force Base

Loading…

次のパス (今後24時間)

TLE

最新Source: Space-Track

元期: Sep 14, 2026, 15:31 UTC

1 A0216U 26177D   26257.64695376 -.00486166  00000-0 -75767-2 0  9997
2 A0216  97.2838 308.5297 0001305  78.2081 281.9320 15.55481385  6463

AllMySatでSTARLINK-38133をリアルタイム追跡

Download on the App Store